Weather History for KTPA - December, 2013

Change the Weather History Date:

Thursday, December 26, 2013

  Actual Average Record
Temperature  
Mean Temperature 69 °F 61 °F  
Max Temperature 79 °F 70 °F 85 °F (1984)
Min Temperature 58 °F 52 °F 19 °F (1983)
Degree Days  
Heating Degree Days 0 6  
Month to date heating degree days 32 109  
Since 1 July heating degree days 62 153  
Cooling Degree Days 4 2  
Month to date cooling degree days 140 68  
Year to date cooling degree days 3876 3598  
Growing Degree Days 18 (Base 50)    
Moisture  
Dew Point 57 °F    
Average Humidity 68    
Maximum Humidity 93    
Minimum Humidity 42    
Precipitation  
Precipitation 0.00 in 0.09 in 1.84 in (1981)
Month to date precipitation 0.25 2.12  
Year to date precipitation 51.92 45.95  
Sea Level Pressure  
Sea Level Pressure 30.17 in    
Wind  
Wind Speed 6 mph (NNE)    
Max Wind Speed 15 mph    
Max Gust Speed 21 mph    
Visibility 9 miles    
Events      
T = Trace of Precipitation, MM = Missing Value Source: NWS Daily Summary

Daily Weather History Graph

Daily Weather History Graph

Search for Another Location

Airport or City:

Trip Planner

Search our weather history database for the weather conditions in past years. The results will help you decide how hot, cold, wet, or windy it might be!

Date:

Astronomy

Dec. 26, 2013 Rise Set
Actual Time 7:19 AM EST 5:42 PM EST
Civil Twilight 6:53 AM EST 6:08 PM EST
Nautical Twilight 6:24 AM EST 6:37 PM EST
Astronomical Twilight 5:55 AM EST 7:06 PM EST
Moon 1:09 AM EST (12/26) 12:57 PM EST (12/26)
Length of Visible Light 11h 14m
Length of Day
10h 22m
Last Quarter, 38% of the Moon is Illuminated
Dec 26
Last Quarter
Jan 1
New
Jan 7
First Quarter
Jan 15
Full
Jan 24
Last Quarter

Hourly Weather History & Observations

Time (EST) Temp. Dew Point Humidity Pressure Visibility Wind Dir Wind Speed Gust Speed Precip Events Conditions
12:53 AM 61.0 °F 54.0 °F 78% 30.17 in 10.0 mi NE 6.9 mph - N/A   Mostly Cloudy
1:53 AM 60.1 °F 55.0 °F 83% 30.18 in 10.0 mi NNE 6.9 mph - N/A   Mostly Cloudy
2:53 AM 60.1 °F 55.0 °F 83% 30.17 in 10.0 mi NE 6.9 mph - N/A   Scattered Clouds
3:53 AM 59.0 °F 55.0 °F 87% 30.17 in 10.0 mi NNE 6.9 mph - N/A   Mostly Cloudy
4:53 AM 57.9 °F 55.0 °F 90% 30.17 in 9.0 mi NE 5.8 mph - N/A   Mostly Cloudy
5:53 AM 57.9 °F 55.0 °F 90% 30.17 in 8.0 mi NNE 8.1 mph - N/A   Mostly Cloudy
6:53 AM 59.0 °F 55.9 °F 90% 30.19 in 9.0 mi NE 5.8 mph - N/A   Mostly Cloudy
7:53 AM 59.0 °F 55.9 °F 90% 30.21 in 6.0 mi NNE 8.1 mph - N/A   Mostly Cloudy
8:53 AM 61.0 °F 55.9 °F 83% 30.22 in 7.0 mi Calm Calm - N/A   Mostly Cloudy
9:53 AM 66.0 °F 57.0 °F 73% 30.22 in 7.0 mi Variable 3.5 mph - N/A   Mostly Cloudy
10:53 AM 71.1 °F 57.0 °F 61% 30.21 in 10.0 mi Variable 6.9 mph - N/A   Mostly Cloudy
11:53 AM 72.0 °F 57.0 °F 59% 30.19 in 10.0 mi Variable 5.8 mph - N/A   Mostly Cloudy
12:53 PM 75.0 °F 57.0 °F 53% 30.16 in 10.0 mi Calm Calm - N/A   Mostly Cloudy
1:53 PM 75.9 °F 55.0 °F 48% 30.13 in 10.0 mi Variable 3.5 mph - N/A   Mostly Cloudy
2:53 PM 78.1 °F 54.0 °F 43% 30.11 in 10.0 mi NE 4.6 mph - N/A   Scattered Clouds
3:53 PM 73.9 °F 57.9 °F 57% 30.12 in 10.0 mi SSW 4.6 mph - N/A   Mostly Cloudy
4:53 PM 72.0 °F 57.9 °F 61% 30.12 in 10.0 mi West 4.6 mph - N/A   Mostly Cloudy
5:53 PM 71.1 °F 59.0 °F 66% 30.14 in 10.0 mi NW 6.9 mph - N/A   Overcast
6:53 PM 70.0 °F 59.0 °F 68% 30.16 in 10.0 mi North 9.2 mph - N/A   Mostly Cloudy
7:53 PM 70.0 °F 57.9 °F 65% 30.18 in 10.0 mi NNE 9.2 mph - N/A   Mostly Cloudy
8:53 PM 69.1 °F 59.0 °F 70% 30.18 in 10.0 mi NE 9.2 mph 19.6 mph N/A   Mostly Cloudy
9:53 PM 68.0 °F 59.0 °F 73% 30.20 in 10.0 mi NE 4.6 mph - N/A   Mostly Cloudy
10:53 PM 66.0 °F 59.0 °F 78% 30.20 in 10.0 mi ENE 4.6 mph - N/A   Overcast
11:53 PM 64.0 °F 55.9 °F 75% 30.20 in 10.0 mi NE 8.1 mph - N/A   Overcast